�������l�o���
Date,Time,MP-1(��Sv/h),MP-2(��Sv/h),MP-3(��Sv/h),MP-4(��Sv/h),MP-5(��Sv/h),MP-6(��Sv/h),MP-7(��Sv/h),MP-8(��Sv/h),����,����(m/s),���J
2017/01/08,00:00,1.107,1.845,1.204,2.098,1.451,0.569,1.040,0.963,���쐼,4.9,��
2017/01/08,00:10,1.108,1.845,1.204,2.097,1.449,0.569,1.038,0.964,��,4.8,��
2017/01/08,00:20,1.108,1.847,1.204,2.100,1.448,0.568,1.039,0.962,��,6.1,��
2017/01/08,00:30,1.105,1.843,1.202,2.100,1.448,0.567,1.039,0.963,���쐼,6.8,��
2017/01/08,00:40,1.108,1.843,1.202,2.099,1.449,0.569,1.040,0.963,���쐼,6.5,��
2017/01/08,00:50,1.106,1.843,1.203,2.102,1.450,0.568,1.039,0.964,���쐼,6.2,��
2017/01/08,01:00,1.106,1.843,1.203,2.100,1.448,0.568,1.039,0.964,��,8.2,��
2017/01/08,01:10,1.106,1.842,1.200,2.101,1.449,0.568,1.039,0.963,��,8.1,��
2017/01/08,01:20,1.107,1.844,1.204,2.099,1.450,0.569,1.040,0.962,��,5.5,��
2017/01/08,01:30,1.106,1.844,1.202,2.097,1.448,0.568,1.041,0.963,��,5.0,��
2017/01/08,01:40,1.107,1.845,1.202,2.099,1.447,0.568,1.040,0.963,��,7.5,��
2017/01/08,01:50,1.105,1.843,1.201,2.100,1.448,0.569,1.037,0.962,��,6.0,��
2017/01/08,02:00,1.107,1.842,1.202,2.095,1.448,0.567,1.039,0.962,���k��,5.2,��
2017/01/08,02:10,1.105,1.846,1.201,2.100,1.448,0.569,1.040,0.962,���k��,4.3,��
2017/01/08,02:20,1.109,1.844,1.203,2.098,1.446,0.568,1.040,0.964,��,4.6,��
2017/01/08,02:30,1.106,1.842,1.201,2.098,1.446,0.568,1.039,0.964,��,5.0,��
2017/01/08,02:40,1.107,1.842,1.200,2.100,1.448,0.569,1.040,0.963,��,5.3,��
2017/01/08,02:50,1.106,1.842,1.202,2.099,1.446,0.569,1.040,0.963,��,4.5,��
2017/01/08,03:00,1.105,1.841,1.201,2.098,1.449,0.570,1.040,0.964,��,4.7,��
2017/01/08,03:10,1.108,1.844,1.201,2.099,1.447,0.569,1.039,0.962,��,6.1,��
2017/01/08,03:20,1.107,1.842,1.200,2.100,1.448,0.569,1.037,0.965,��,5.2,��
2017/01/08,03:30,1.106,1.844,1.201,2.097,1.445,0.568,1.040,0.964,��,4.3,��
2017/01/08,03:40,1.107,1.842,1.201,2.095,1.444,0.568,1.039,0.963,��,4.7,��
2017/01/08,03:50,1.107,1.842,1.200,2.098,1.445,0.567,1.041,0.964,��,3.8,��
2017/01/08,04:00,1.107,1.843,1.202,2.097,1.448,0.567,1.040,0.963,��,3.0,��
2017/01/08,04:10,1.106,1.843,1.201,2.101,1.446,0.568,1.039,0.962,��,4.0,��
2017/01/08,04:20,1.109,1.841,1.202,2.097,1.447,0.569,1.042,0.963,��,5.1,��
2017/01/08,04:30,1.106,1.843,1.202,2.097,1.448,0.569,1.040,0.963,��,3.7,��
2017/01/08,04:40,1.105,1.840,1.201,2.099,1.446,0.569,1.040,0.963,���k��,3.3,��
2017/01/08,04:50,1.105,1.843,1.201,2.098,1.446,0.567,1.040,0.964,�k�k��,1.9,��
2017/01/08,05:00,1.104,1.841,1.202,2.096,1.446,0.568,1.039,0.963,�k�k��,1.5,��
2017/01/08,05:10,1.104,1.841,1.201,2.100,1.448,0.567,1.039,0.964,�k��,2.3,��
2017/01/08,05:20,1.103,1.842,1.199,2.099,1.447,0.567,1.040,0.964,�k�k��,6.4,��
2017/01/08,05:30,1.104,1.845,1.200,2.098,1.447,0.566,1.040,0.963,�k�k��,5.1,��
2017/01/08,05:40,1.106,1.841,1.202,2.098,1.448,0.568,1.040,0.963,�k�k��,7.3,��
2017/01/08,05:50,1.105,1.840,1.202,2.096,1.448,0.567,1.039,0.962,�k�k��,7.3,��
2017/01/08,06:00,1.106,1.843,1.200,2.098,1.445,0.568,1.039,0.965,�k�k��,6.5,��
2017/01/08,06:10,1.108,1.843,1.202,2.098,1.446,0.568,1.039,0.963,�k�k��,6.1,��
2017/01/08,06:20,1.107,1.843,1.202,2.098,1.447,0.567,1.040,0.964,�k�k��,4.8,��
2017/01/08,06:30,1.105,1.840,1.200,2.099,1.448,0.568,1.040,0.963,�k�k��,5.2,��
2017/01/08,06:40,1.105,1.841,1.201,2.099,1.445,0.567,1.042,0.963,�k�k��,6.0,��
2017/01/08,06:50,1.104,1.843,1.201,2.096,1.445,0.567,1.038,0.962,�k��,6.4,��
2017/01/08,07:00,1.104,1.843,1.201,2.098,1.446,0.567,1.040,0.961,�k��,5.2,��
2017/01/08,07:10,1.103,1.843,1.200,2.098,1.445,0.568,1.039,0.961,�k�k��,5.6,��
2017/01/08,07:20,1.106,1.842,1.202,2.100,1.446,0.568,1.040,0.963,�k��,5.5,��
2017/01/08,07:30,1.104,1.842,1.202,2.100,1.448,0.568,1.042,0.962,�k��,5.6,��
2017/01/08,07:40,1.102,1.843,1.201,2.097,1.447,0.567,1.038,0.963,�k��,6.0,��
2017/01/08,07:50,1.104,1.845,1.200,2.100,1.446,0.567,1.042,0.963,�k��,5.3,��
2017/01/08,08:00,1.105,1.840,1.202,2.100,1.448,0.567,1.040,0.964,�k�k��,5.5,��
2017/01/08,08:10,1.107,1.843,1.202,2.099,1.447,0.569,1.038,0.964,�k�k��,4.8,��
2017/01/08,08:20,1.104,1.844,1.200,2.099,1.447,0.568,1.041,0.963,�k�k��,4.4,��
2017/01/08,08:30,1.108,1.845,1.202,2.100,1.448,0.567,1.040,0.966,�k��,3.8,��
2017/01/08,08:40,1.108,1.841,1.202,2.101,1.450,0.570,1.040,0.965,�k�k��,4.5,��
2017/01/08,08:50,1.107,1.845,1.203,2.100,1.451,0.569,1.041,0.966,�k�k��,4.6,��
2017/01/08,09:00,1.109,1.847,1.203,2.099,1.446,0.568,1.041,0.966,�k�k��,4.7,��
2017/01/08,09:10,1.108,1.847,1.203,2.103,1.449,0.567,1.042,0.963,�k�k��,3.8,��
2017/01/08,09:20,1.110,1.845,1.204,2.096,1.449,0.569,1.043,0.964,�k�k��,4.4,��
2017/01/08,09:30,1.110,1.850,1.205,2.096,1.449,0.567,1.043,0.964,�k�k��,3.9,��
2017/01/08,09:40,1.108,1.849,1.205,2.100,1.451,0.569,1.044,0.965,�k�k��,3.8,��
2017/01/08,09:50,1.108,1.846,1.206,2.104,1.451,0.569,1.041,0.964,�k,5.2,��
2017/01/08,10:00,1.112,1.848,1.206,2.104,1.450,0.568,1.040,0.965,�k,6.4,��
2017/01/08,10:10,1.111,1.843,1.209,2.102,1.450,0.570,1.040,0.967,�k,7.5,��
2017/01/08,10:20,1.110,1.843,1.205,2.103,1.452,0.569,1.040,0.965,�k,5.9,��
2017/01/08,10:30,1.108,1.845,1.204,2.102,1.452,0.568,1.041,0.963,�k,6.0,��
2017/01/08,10:40,1.110,1.847,1.205,2.100,1.450,0.569,1.039,0.965,�k,5.4,��
2017/01/08,10:50,1.110,1.846,1.206,2.105,1.452,0.569,1.040,0.964,�k,4.8,��
2017/01/08,11:00,1.112,1.846,1.208,2.103,1.455,0.569,1.040,0.964,�k,5.8,��
2017/01/08,11:10,1.111,1.846,1.205,2.106,1.454,0.568,1.038,0.966,�k�k��,5.8,��
2017/01/08,11:20,1.113,1.845,1.207,2.102,1.454,0.569,1.037,0.963,�k�k��,5.4,��
2017/01/08,11:30,1.113,1.846,1.209,2.105,1.454,0.569,1.037,0.964,�k,5.0,��
2017/01/08,11:40,1.114,1.849,1.208,2.103,1.456,0.571,1.040,0.965,�k�k��,5.6,��
2017/01/08,11:50,1.114,1.849,1.207,2.102,1.457,0.570,1.038,0.967,�k�k��,4.7,��
2017/01/08,12:00,1.114,1.848,1.208,2.106,1.456,0.571,1.040,0.966,�k�k��,4.6,��
2017/01/08,12:10,1.111,1.849,1.209,2.105,1.455,0.571,1.042,0.965,�k,4.4,��
2017/01/08,12:20,1.115,1.848,1.209,2.106,1.455,0.570,1.038,0.966,�k,4.7,��
2017/01/08,12:30,1.113,1.850,1.206,2.107,1.454,0.570,1.040,0.967,�k,5.0,��
2017/01/08,12:40,1.113,1.851,1.206,2.107,1.453,0.571,1.038,0.967,�k,3.9,��
2017/01/08,12:50,1.112,1.850,1.205,2.105,1.455,0.570,1.042,0.964,�k,3.7,��
2017/01/08,13:00,1.112,1.852,1.206,2.106,1.455,0.571,1.039,0.967,�k,3.6,��
2017/01/08,13:10,1.110,1.851,1.208,2.104,1.453,0.570,1.040,0.965,�k,4.1,��
2017/01/08,13:20,1.115,1.854,1.206,2.107,1.457,0.570,1.038,0.966,�k�k��,3.9,��
2017/01/08,13:30,1.114,1.853,1.207,2.102,1.457,0.572,1.039,0.965,�k,3.7,��
2017/01/08,13:40,1.113,1.852,1.208,2.106,1.455,0.570,1.040,0.965,�k,4.5,��
2017/01/08,13:50,1.114,1.853,1.207,2.106,1.454,0.571,1.041,0.968,�k�k��,3.5,��
2017/01/08,14:00,1.114,1.851,1.206,2.107,1.454,0.569,1.041,0.965,�k�k��,3.3,��
2017/01/08,14:10,1.113,1.852,1.208,2.104,1.454,0.571,1.041,0.965,�k�k��,2.9,��
2017/01/08,14:20,1.114,1.848,1.206,2.106,1.454,0.572,1.040,0.966,�k�k��,3.5,��
2017/01/08,14:30,1.114,1.850,1.206,2.104,1.455,0.570,1.042,0.967,�k�k��,3.3,�L
2017/01/08,14:40,1.112,1.849,1.206,2.105,1.456,0.570,1.043,0.966,�k�k��,3.2,��
2017/01/08,14:50,1.113,1.849,1.207,2.105,1.453,0.569,1.042,0.965,�k�k��,2.8,��
2017/01/08,15:00,1.112,1.851,1.206,2.106,1.454,0.571,1.041,0.964,�k,2.0,��
2017/01/08,15:10,1.113,1.850,1.207,2.104,1.454,0.570,1.042,0.966,�k,2.3,��
2017/01/08,15:20,1.116,1.852,1.207,2.105,1.454,0.572,1.042,0.964,�k��,2.3,��
2017/01/08,15:30,1.112,1.848,1.208,2.103,1.453,0.571,1.044,0.964,���k��,4.4,��
2017/01/08,15:40,1.113,1.847,1.207,2.105,1.453,0.571,1.043,0.966,���k��,4.3,��
2017/01/08,15:50,1.113,1.848,1.205,2.102,1.455,0.571,1.043,0.965,���k��,4.8,��
2017/01/08,16:00,1.115,1.851,1.209,2.105,1.452,0.572,1.047,0.967,���k��,5.5,��
2017/01/08,16:10,1.114,1.850,1.207,2.103,1.453,0.570,1.044,0.964,���k��,4.9,��
2017/01/08,16:20,1.114,1.849,1.207,2.104,1.453,0.569,1.043,0.967,���k��,6.2,��
2017/01/08,16:30,1.114,1.849,1.205,2.104,1.456,0.572,1.043,0.965,���k��,6.0,��
2017/01/08,16:40,1.113,1.849,1.206,2.104,1.455,0.571,1.042,0.966,���k��,6.0,��
2017/01/08,16:50,1.114,1.851,1.206,2.106,1.453,0.570,1.043,0.966,���k��,5.7,��
2017/01/08,17:00,1.113,1.849,1.204,2.104,1.455,0.570,1.042,0.965,��,6.4,��
2017/01/08,17:10,1.113,1.851,1.207,2.107,1.455,0.570,1.041,0.967,���k��,6.5,��
2017/01/08,17:20,1.115,1.850,1.206,2.104,1.455,0.571,1.043,0.965,���k��,7.1,��
2017/01/08,17:30,1.113,1.850,1.210,2.105,1.453,0.571,1.043,0.965,���k��,7.1,��
2017/01/08,17:40,1.113,1.849,1.209,2.107,1.454,0.571,1.043,0.964,��,7.1,��
2017/01/08,17:50,1.114,1.851,1.207,2.103,1.456,0.569,1.041,0.966,���k��,7.9,��
2017/01/08,18:00,1.114,1.851,1.209,2.104,1.456,0.572,1.041,0.966,��,8.6,��
2017/01/08,18:10,1.114,1.851,1.209,2.106,1.456,0.570,1.042,0.965,��,8.2,��
2017/01/08,18:20,1.114,1.849,1.210,2.104,1.453,0.571,1.042,0.965,��,8.4,��
2017/01/08,18:30,1.114,1.851,1.206,2.108,1.453,0.570,1.041,0.966,���k��,7.4,��
2017/01/08,18:40,1.115,1.851,1.208,2.106,1.456,0.571,1.043,0.966,���k��,8.2,��
2017/01/08,18:50,1.114,1.850,1.209,2.104,1.456,0.571,1.042,0.967,���k��,9.2,�L
2017/01/08,19:00,1.115,1.849,1.208,2.105,1.456,0.570,1.043,0.965,���k��,8.9,��
2017/01/08,19:10,1.114,1.846,1.208,2.105,1.453,0.571,1.043,0.965,���k��,8.4,�L
2017/01/08,19:20,1.113,1.849,1.207,2.103,1.456,0.573,1.040,0.965,���k��,8.2,�L
2017/01/08,19:30,1.113,1.845,1.208,2.100,1.450,0.571,1.041,0.966,���k��,8.7,�L
2017/01/08,19:40,1.112,1.844,1.208,2.102,1.450,0.571,1.041,0.968,���k��,7.7,�L
2017/01/08,19:50,1.113,1.838,1.207,2.101,1.448,0.571,1.041,0.965,���k��,7.7,�L
2017/01/08,20:00,1.110,1.838,1.204,2.099,1.449,0.570,1.039,0.965,���k��,8.0,�L
2017/01/08,20:10,1.107,1.835,1.204,2.100,1.441,0.571,1.040,0.964,���k��,8.0,�L
2017/01/08,20:20,1.104,1.833,1.202,2.095,1.437,0.572,1.039,0.964,���k��,7.0,�L
2017/01/08,20:30,1.105,1.830,1.199,2.094,1.437,0.570,1.038,0.961,�k��,7.7,�L
2017/01/08,20:40,1.107,1.828,1.200,2.090,1.432,0.572,1.037,0.963,�k��,8.3,�L
2017/01/08,20:50,1.105,1.824,1.199,2.090,1.434,0.573,1.037,0.961,�k��,8.0,�L
2017/01/08,21:00,1.103,1.818,1.196,2.086,1.430,0.570,1.036,0.962,���k��,7.9,�L
2017/01/08,21:10,1.099,1.816,1.193,2.082,1.427,0.570,1.034,0.960,���k��,8.3,�L
2017/01/08,21:20,1.101,1.811,1.193,2.081,1.422,0.571,1.032,0.961,���k��,8.1,�L
2017/01/08,21:30,1.099,1.808,1.189,2.080,1.420,0.572,1.033,0.959,���k��,8.2,�L
2017/01/08,21:40,1.099,1.808,1.191,2.074,1.420,0.570,1.033,0.961,�k��,7.6,�L
2017/01/08,21:50,1.098,1.805,1.189,2.073,1.418,0.570,1.033,0.961,�k��,8.1,�L
2017/01/08,22:00,1.097,1.808,1.187,2.074,1.417,0.569,1.034,0.961,�k��,9.1,�L
2017/01/08,22:10,1.095,1.808,1.187,2.072,1.416,0.569,1.033,0.960,�k��,9.0,�L
2017/01/08,22:20,1.098,1.806,1.187,2.071,1.417,0.569,1.032,0.958,�k��,8.9,�L
2017/01/08,22:30,1.097,1.801,1.184,2.072,1.411,0.569,1.034,0.960,�k�k��,7.7,�L
2017/01/08,22:40,1.097,1.800,1.183,2.072,1.412,0.568,1.032,0.960,�k��,8.0,�L
2017/01/08,22:50,1.096,1.799,1.184,2.068,1.408,0.569,1.031,0.958,�k��,8.1,�L
2017/01/08,23:00,1.094,1.792,1.180,2.062,1.402,0.568,1.029,0.959,�k��,8.2,�L
2017/01/08,23:10,1.091,1.788,1.179,2.059,1.401,0.568,1.029,0.956,�k��,9.6,�L
2017/01/08,23:20,1.089,1.785,1.176,2.054,1.400,0.568,1.028,0.956,�k��,10.6,�L
2017/01/08,23:30,1.089,1.783,1.178,2.051,1.400,0.568,1.028,0.955,�k��,9.6,�L
2017/01/08,23:40,1.088,1.784,1.175,2.048,1.398,0.567,1.029,0.957,�k�k��,10.6,�L
2017/01/08,23:50,1.086,1.783,1.175,2.046,1.395,0.568,1.028,0.957,�k�k��,10.6,�L
